Regional Weather Roundup
Issued by NWS

Home | Current Version | Previous Version | Text Only | Print | Product List | Glossary Off
Versions: 1 2 3 4 5 6 7 8 9 10 11 12 13 14 15 16 17 18 19 20 21 22 23 24 25 26 27 28 29 30 31 32 33 34 35 36 37 38 39 40 41 42 43 44 45 46 47 48 49 50

000
ASUS43 KMKX 181111
RWRWI

WISCONSIN REGIONAL WEATHER ROUNDUP
NATIONAL WEATHER SERVICE MILWAUKEE/SULLIVAN WI
600 AM CDT WED OCT 18 2017

NOTE: "FAIR" INDICATES FEW OR NO CLOUDS BELOW 12,000 FEET WITH NO
SIGNIFICANT WEATHER AND/OR OBSTRUCTIONS TO VISIBILITY.

WIZ001-002-006>008-014>016-023>028-181200-
NORTHWEST WISCONSIN

CITY           SKY/WX    TMP DP  RH WIND       PRES   REMARKS
SUPERIOR ARPT  CLEAR     46  41  84 S6        29.77F
ASHLAND        CLEAR     53  43  68 S5        29.82F
HAYWARD        CLEAR     50  42  74 S6        29.86S
SIREN          CLEAR     49  43  78 S6        29.84F
CUMBERLAND     CLEAR     45  41  87 CALM      29.87S
RICE LAKE      CLEAR     46  43  88 SE5       29.89F
CHETEK         CLEAR     46  44  93 E9        29.89F
LADYSMITH      CLEAR     50  44  79 S8        29.91F
EAU CLAIRE     CLEAR     48  43  82 S6        29.90S
MENOMONIE      CLEAR     47  43  86 E6        29.90S
NEW RICHMOND   CLEAR     49  42  77 S8        29.86F
OSCEOLA        CLEAR     51  44  77 SE6       29.87F
$$

WIZ003>005-009-010-017-018-181200-
NORTH CENTRAL WISCONSIN

CITY           SKY/WX    TMP DP  RH WIND       PRES   REMARKS
MANITOWISH WTR CLEAR     44  44 100 S6        29.90F
ARBOR VITAE    CLEAR     49  45  85 S6        29.92S
WOODRUFF       CLEAR     49  45  85 S6        29.92S
RHINELANDER    CLEAR     50  44  80 SW8       29.94F
EAGLE RIVER    CLEAR     46  43  89 CALM      29.93S
LAND O LAKES   CLEAR     46  42  88 CALM      29.93F
PHILLIPS       CLEAR     46  43  89 S5        29.91S
TOMAHAWK       CLEAR     40  39  96 CALM      29.95S
MEDFORD        CLEAR     45  41  86 S8        29.94S
MERRILL        CLEAR     49  44  83 S5        29.96S
$$

WIZ029-030-035-036-043>047-181200-
CENTRAL WISCONSIN

CITY           SKY/WX    TMP DP  RH WIND       PRES   REMARKS
WAUSAU         CLEAR     48  44  86 S6        29.95F
MOSINEE        NOT AVBL
MARSHFIELD     CLEAR     46  41  82 S8        29.95F
STEVENS POINT  CLEAR     46  42  85 S7        29.99S
WAUPACA        CLEAR     48  43  83 S5        30.01S
WAUTOMA        CLEAR     38  37  97 CALM      30.03R
WISC RAPIDS    CLEAR     49  43  80 S7        30.00S
CAMP DOUGLAS   CLEAR     47  42  81 CALM      30.00R
$$

WIZ011>013-019>022-031-037>040-048>050-181200-
NORTHEAST WISCONSIN

CITY           SKY/WX    TMP DP  RH WIND       PRES   REMARKS
ANTIGO         CLEAR     43  41  92 S8        29.97F
SHAWANO        CLEAR     49  44  80 CALM      30.00R
OCONTO         CLEAR     49  43  78 CALM      30.00R
STURGEON BAY   CLEAR     52  43  71 S8        30.02R
GREEN BAY      CLEAR     52  46  80 S7        30.02R
MANITOWOC      CLEAR     50  42  74 S3        30.05R
APPLETON       CLEAR     50  39  66 SW10      30.01S
CLINTONVILLE   CLEAR     48  43  81 S6        30.01R
OSHKOSH        CLEAR     50  43  77 S14       30.02S
$$

WIZ032>034-041-042-053>061-181200-
SOUTHWEST WISCONSIN

CITY           SKY/WX    TMP DP  RH WIND       PRES   REMARKS
LA CROSSE      CLEAR     55  46  71 S10       29.96S
SPARTA         CLEAR     47  43  87 S6        29.99S
VIROQUA        CLEAR     49  45  84 S6        30.00R
BOSCOBEL       CLEAR     41  39  93 CALM      30.03S
PRAIRIE DU CHI CLEAR     52  42  71 E7        30.01S
PLATTEVILLE    CLEAR     47  44  88 S6        30.05S
$$

WIZ056-057-062-063-064-067-068-181200-
SOUTH CENTRAL WISCONSIN

CITY           SKY/WX    TMP DP  RH WIND       PRES   REMARKS
REEDSBURG      CLEAR     50  43  77 S7        30.02S
BARABOO/DELLS  CLEAR     51  42  70 S9        30.03S
LONE ROCK      CLEAR     48  43  82 SE6       30.04S
MINERAL POINT  CLEAR     48  45  87 SE8       30.05S
MADISON        CLEAR     50  42  74 S10       30.06S
MIDDLETON      CLEAR     50  42  75 S9        30.06S
WATERTOWN      CLEAR     47  43  87 S7        30.08R
MONROE         CLEAR     46  39  76 S13       30.07F
JANESVILLE     CLEAR     50  41  71 S7        30.10R
$$

WIZ051-052-058>065-066-070>072-181200-
SOUTHEAST WISCONSIN

CITY           SKY/WX    TMP DP  RH WIND       PRES   REMARKS
MILWAUKEE      CLEAR     51  41  68 S8        30.11R
WAUKESHA       CLEAR     48  39  71 SW7       30.10S
MILWAUKEE/TIMM CLEAR     50  37  62 S8        30.10S
RACINE         CLEAR     50  41  71 SW10      30.13R
BURLINGTON     CLEAR     45  41  86 S5        30.12S
KENOSHA        CLEAR     49  40  71 S7        30.13R
FOND DU LAC    CLEAR     52  41  66 SW8       30.04S
SHEBOYGAN      CLEAR     48  43  82 S7        30.06R
WEST BEND      CLEAR     52  39  62 S5        30.08R
JUNEAU         CLEAR     48  41  76 S8        30.08R
$$

LSZ147-162-181200-
LAKE SUPERIOR

STATION/POSITION TIME  TEMP    WIND        PRES    WAVE
                       AIR SEA DIR/SP/G            HT/PER
                 (UTC) (F)     (DEG/KT/KT) (MB)    (FT/S)
W MID LAKE BUOY  1050   56 53              1008.3F   2/ 4
DEVILS ISLAND    1100   57     180/  8/ 10 1008.4F
PORT WING        0940          210/  7/ 11 1009.1S
SAXON HARBOR     1030   58     200/  8/ 15 1009.5S
$$

LMZ867-665-643>646-181200-
LAKE MICHIGAN

STATION/POSITION TIME  TEMP    WIND        PRES    WAVE
                       AIR SEA DIR/SP/G            HT/PER
                 (UTC) (F)     (DEG/KT/KT) (MB)    (FT/S)
S GREEN BAY BUOY 1100   58 58  210/ 17/ 21 1015.6
N MID LAKE BUOY  1050   60 59  200/ 17/ 21 1016.3R   5/ 6
NORTHPORT PIER   1040   54     180/  3/  6 1015.6R
KEWAUNEE LAKESHO 1042   53     200/  8/ 11 1015.9R
SHEBOYGAN LAKESH 1100   54     190/ 12/ 13 1017.7R
PORT WASHINGTON  1040   51     230/  3/  5 1019.6R
MILWAUKEE LAKESH 1050   54     220/ 10/ 12   N/A
S MID LAKE BUOY  1050   60 61  230/ 19/ 23 1020.4S   4/ 5
KENOSHA   LAKESH 1100   52     210/ 10/ 14 1020.0
$$

TC  - TEMPERATURE IN CELSIUS
VSB - VISIBILITY IN STATUTE MILES
WCI - WIND CHILL INDEX
HX  - HEAT INDEX





USA.gov is the U.S. government's official web portal to all federal, state and local government web resources and services.